Date,TemperatureHighF,TemperatureAvgF,TemperatureLowF,DewpointHighF,DewpointAvgF,DewpointLowF,HumidityHigh,HumidityAvg,HumidityLow,PressureMaxIn,PressureMinIn,WindSpeedMaxMPH,WindSpeedAvgMPH,GustSpeedMaxMPH,PrecipitationSumIn
2013-1-1,35.0,26.8,21.0,24.0,17.9,3.0,88,70,44,0.00,40.00,4,1,6,0.01
2013-1-2,33.0,23.1,19.0,9.0,6.3,3.0,62,48,34,0.00,40.00,1,0,4,0.01
2013-1-3,33.0,23.4,17.0,20.0,0.3,-99.9,88,56,30,0.00,40.00,2,-97,4,0.01
2013-1-4,34.0,29.4,23.0,33.0,28.2,22.0,99,95,90,0.00,40.00,3,1,6,0.01
2013-1-5,30.0,26.7,23.0,29.0,26.0,22.0,100,97,94,0.00,40.00,1,0,3,0.01
2013-1-6,30.0,27.0,25.0,27.0,23.6,21.0,95,86,71,0.00,40.00,4,2,7,0.00
2013-1-7,36.0,31.0,26.0,34.0,28.9,22.0,99,92,73,0.00,40.00,9,4,17,0.02
2013-1-8,36.0,30.4,25.0,35.0,27.2,17.0,97,88,61,0.00,40.00,10,3,15,0.01
2013-1-9,34.0,27.9,20.0,32.0,23.5,15.0,95,84,73,0.00,40.00,7,5,12,0.01
2013-1-10,28.0,18.7,11.0,17.0,6.5,-99.9,87,71,54,0.00,40.00,6,-64,9,0.00
2013-1-11,22.0,13.4,9.0,14.0,9.2,4.0,91,83,63,0.00,40.00,3,2,6,0.00
2013-1-12,24.0,13.8,8.0,8.0,-0.5,-99.9,90,62,41,0.00,40.00,3,-40,5,0.00
2013-1-13,24.0,17.2,10.0,11.0,-2.4,-99.9,74,59,46,0.00,40.00,3,-42,5,0.00
2013-1-14,41.0,31.6,27.0,28.0,14.1,-99.9,73,58,53,0.00,40.00,4,-46,6,0.01
2013-1-15,53.0,41.7,32.0,16.0,2.4,-99.9,50,24,14,0.00,40.00,3,-91,6,0.00
2013-1-16,51.0,42.0,35.0,21.0,10.1,3.0,42,27,19,0.00,40.00,4,2,6,0.00
2013-1-17,51.0,41.4,33.0,23.0,16.0,8.0,47,36,27,0.00,40.00,3,2,7,0.00
2013-1-18,47.0,42.2,38.0,10.0,-5.8,-99.9,25,15,11,0.00,40.00,4,-81,10,0.00
2013-1-19,52.0,43.8,37.0,13.0,9.2,3.0,32,24,17,0.00,40.00,4,1,7,0.00
2013-1-20,50.0,41.1,35.0,10.0,5.0,1.0,27,22,18,0.00,40.00,3,-42,5,0.00
2013-1-21,53.0,39.2,31.0,5.0,-0.1,-6.0,28,19,12,0.00,40.00,2,1,5,0.00
2013-1-22,45.0,38.3,33.0,11.0,-0.2,-9.0,32,20,13,0.00,40.00,1,0,2,0.01
2013-1-23,36.0,30.7,27.0,29.0,19.9,7.0,99,67,30,0.00,40.00,5,1,9,0.00
2013-1-24,37.0,27.8,19.0,27.0,19.6,4.0,97,75,27,0.00,40.00,4,1,9,0.00
2013-1-25,37.0,32.0,27.0,34.0,24.1,-99.9,100,87,74,0.00,40.00,4,-42,8,0.01
2013-1-26,32.0,25.8,19.0,23.0,20.7,16.0,90,81,64,0.00,40.00,3,2,7,0.00
2013-1-27,28.0,25.0,23.0,23.0,21.4,19.0,93,86,74,0.00,40.00,4,3,8,0.00
2013-1-28,29.0,25.8,23.0,24.0,16.0,-99.9,88,79,76,0.00,40.00,7,-40,11,0.00
2013-1-29,37.0,31.4,27.0,30.0,26.8,23.0,90,83,73,0.00,40.00,6,4,11,0.00
2013-1-30,41.0,35.8,30.0,30.0,27.6,23.0,83,72,58,0.00,40.00,7,-45,12,0.00
2013-1-31,39.0,33.8,30.0,31.0,29.1,27.0,93,83,71,0.00,40.00,7,3,11,0.00
2013-2-1,41.0,34.3,27.0,28.0,23.3,13.0,92,66,46,0.00,40.00,5,2,9,0.00
2013-2-2,48.0,36.8,31.0,21.0,15.4,9.0,55,42,30,0.00,40.00,2,1,5,0.00
2013-2-3,41.0,37.3,32.0,27.0,14.1,-99.9,79,48,25,0.00,40.00,7,-39,12,0.00
2013-2-4,39.0,33.1,26.0,31.0,21.4,-99.9,99,75,62,0.00,40.00,3,-43,5,0.00
2013-2-5,38.0,31.3,28.0,32.0,27.9,25.0,99,87,69,0.00,40.00,4,2,8,0.00
2013-2-6,31.0,28.8,28.0,28.0,25.7,22.0,99,88,69,0.00,40.00,6,2,11,0.00
2013-2-7,33.0,26.7,24.0,27.0,15.9,-99.9,97,77,58,0.00,40.00,4,-41,8,0.01
2013-2-8,35.0,27.7,20.0,18.0,10.4,3.0,78,50,27,0.00,40.00,4,2,7,0.00
2013-2-9,44.0,32.3,25.0,25.0,20.3,15.0,89,62,39,0.00,40.00,4,2,7,0.01
2013-2-10,41.0,33.5,26.0,22.0,17.7,9.0,70,53,38,0.00,40.00,3,-42,6,0.00
2013-2-11,40.0,33.4,29.0,27.0,8.6,-99.9,82,51,34,0.00,40.00,6,-85,10,0.00
2013-2-12,36.0,32.9,30.0,32.0,18.8,-99.9,93,68,49,0.00,40.00,8,-37,12,0.00
2013-2-13,38.0,32.5,27.0,31.0,22.8,18.0,91,69,48,0.00,40.00,8,5,14,0.01
2013-2-14,42.0,34.3,24.0,31.0,26.6,16.0,86,74,60,0.00,40.00,4,2,7,0.00
2013-2-15,44.0,35.5,29.0,34.0,30.4,27.0,93,82,67,0.00,40.00,2,0,4,0.00
2013-2-16,37.0,31.7,26.0,33.0,28.3,24.0,99,88,65,0.00,40.00,7,4,13,0.00
2013-2-17,35.0,27.3,21.0,24.0,20.0,17.0,90,75,53,0.00,40.00,7,3,12,0.00
2013-2-18,34.0,24.6,18.0,25.0,20.5,16.0,98,85,66,0.00,40.00,1,0,4,0.00
2013-2-19,30.0,23.2,16.0,22.0,13.0,-99.9,99,77,59,0.00,40.00,4,-42,6,0.00
2013-2-20,33.0,24.0,17.0,20.0,15.9,7.0,86,71,51,0.00,40.00,4,1,7,0.00
2013-2-21,30.0,25.6,18.0,25.0,16.8,-99.9,96,83,76,0.00,40.00,6,-41,11,0.01
2013-2-22,33.0,27.0,21.0,31.0,14.5,-99.9,96,84,83,0.00,40.00,7,-80,13,0.02
2013-2-23,31.0,25.4,21.0,22.0,14.1,-99.9,91,75,64,0.00,40.00,8,-87,15,0.01
2013-2-24,30.0,26.7,23.0,27.0,-4.3,-99.9,98,67,81,0.00,40.00,6,-220,11,0.00
2013-2-25,28.0,24.3,23.0,25.0,-18.4,-99.9,97,63,75,0.00,40.00,10,-330,16,0.01
2013-2-26,37.0,26.1,19.0,20.0,16.2,9.0,82,68,33,0.00,40.00,6,2,9,0.00
2013-2-27,37.0,29.6,23.0,26.0,17.7,-99.9,89,74,60,0.00,40.00,6,-43,11,0.00
2013-2-28,38.0,32.6,28.0,38.0,31.4,24.0,99,95,84,0.00,40.00,7,2,12,0.02
2013-3-1,42.0,38.6,34.0,38.0,34.8,29.0,98,87,71,0.00,40.00,9,6,14,0.01
2013-3-2,44.0,36.5,27.0,31.0,27.5,23.0,92,71,47,0.00,40.00,6,3,11,0.00
2013-3-3,32.0,25.5,21.0,24.0,16.3,12.0,91,68,53,0.00,40.00,5,4,10,0.00
2013-3-4,34.0,25.7,20.0,18.0,9.6,-99.9,73,59,46,0.00,40.00,3,-41,6,0.00
2013-3-5,27.0,25.5,22.0,25.0,19.9,13.0,93,80,65,0.00,40.00,6,3,8,0.01
2013-3-6,33.0,27.9,25.0,31.0,26.1,24.0,97,93,89,0.00,40.00,6,3,9,0.01
2013-3-7,39.0,29.7,23.0,28.0,20.5,-99.9,93,81,57,0.00,40.00,5,-40,11,0.01
2013-3-8,40.0,29.6,20.0,28.0,22.1,17.0,96,75,43,0.00,40.00,3,1,6,0.00
2013-3-9,44.0,33.0,23.0,20.0,13.8,0.0,70,46,31,0.00,40.00,4,2,8,0.00
2013-3-10,42.0,36.3,30.0,32.0,19.9,2.0,83,55,21,0.00,40.00,4,-42,8,0.01
2013-3-11,41.0,33.5,26.0,29.0,14.6,-2.0,95,53,16,0.00,40.00,3,-51,6,0.00
2013-3-12,41.0,36.6,32.0,37.0,35.2,31.0,100,95,80,0.00,40.00,6,-68,13,0.01
2013-3-13,44.0,39.8,37.0,38.0,36.5,35.0,97,88,78,0.00,40.00,5,-74,10,0.00
2013-3-14,47.0,40.6,36.0,39.0,34.9,25.0,96,81,49,0.00,40.00,6,-64,11,0.00
2013-3-15,43.0,37.3,35.0,35.0,32.9,30.0,94,84,66,0.00,40.00,8,3,13,0.00
2013-3-16,36.0,31.7,24.0,33.0,27.3,19.0,92,84,67,0.00,40.00,9,-73,13,0.00
2013-3-17,29.0,24.3,22.0,21.0,18.7,16.0,91,79,61,0.00,40.00,8,-78,13,0.01
2013-3-18,31.0,26.1,20.0,25.0,19.0,14.0,92,76,55,0.00,40.00,7,-52,13,0.00
2013-3-19,35.0,28.5,23.0,30.0,14.1,-5.0,98,58,26,0.00,40.00,2,-58,5,0.03
2013-3-20,37.0,30.7,21.0,34.0,28.6,16.0,99,92,77,0.00,40.00,10,-67,17,0.04
2013-3-21,29.0,24.0,19.0,20.0,17.8,15.0,91,78,62,0.00,40.00,7,-90,14,0.01
2013-3-22,30.0,21.8,15.0,19.0,14.0,10.0,90,73,57,0.00,40.00,5,-80,8,0.00
2013-3-23,33.0,23.3,15.0,19.0,12.9,7.0,74,64,48,0.00,40.00,3,-79,8,0.01
2013-3-24,34.0,24.7,17.0,16.0,9.0,-99.9,83,60,42,0.00,40.00,2,-119,5,0.00
2013-3-25,40.0,30.0,19.0,21.0,15.2,10.0,67,55,39,0.00,40.00,2,-124,5,0.00
2013-3-26,45.0,36.7,25.0,27.0,23.9,17.0,71,61,48,0.00,40.00,2,-55,5,0.01
2013-3-27,41.0,36.0,32.0,33.0,24.5,-99.9,89,73,59,0.00,40.00,1,-218,4,0.00
2013-3-28,45.0,37.3,31.0,37.0,31.0,26.0,94,79,49,0.00,40.00,3,-114,6,0.00
2013-3-29,47.0,40.6,33.0,30.0,26.3,21.0,72,57,42,0.00,40.00,4,-49,8,0.00
2013-3-30,51.0,42.0,33.0,36.0,26.1,-99.9,79,63,49,0.00,40.00,2,-56,6,0.00
2013-3-31,55.0,44.5,37.0,34.0,28.8,23.0,78,55,42,0.00,40.00,3,-79,5,0.00
2013-4-1,56.0,48.2,40.0,35.0,30.8,25.0,75,52,36,0.00,40.00,7,3,9,0.00
2013-4-2,51.0,42.9,38.0,35.0,31.7,27.0,79,65,47,0.00,40.00,7,-38,10,0.00
2013-4-3,52.0,43.9,37.0,31.0,25.9,20.0,77,50,36,0.00,40.00,6,-78,9,0.00
2013-4-4,43.0,40.4,38.0,39.0,34.2,29.0,99,80,57,0.00,40.00,3,-132,7,0.02
2013-4-5,40.0,36.6,35.0,38.0,35.6,34.0,99,96,89,0.00,40.00,4,-40,10,0.02
2013-4-6,39.0,33.2,31.0,35.0,30.2,26.0,100,89,74,0.00,40.00,5,-104,10,0.01
2013-4-7,34.0,31.2,26.0,34.0,27.6,18.0,99,87,71,0.00,40.00,8,-78,13,0.02
2013-4-8,41.0,33.0,26.0,33.0,18.0,-99.9,92,75,66,0.00,40.00,4,-220,6,0.01
2013-4-9,46.0,36.2,27.0,38.0,23.2,-99.9,97,72,39,0.00,40.00,3,-119,6,0.00
2013-4-10,42.0,37.4,33.0,40.0,33.8,27.0,99,87,70,0.00,40.00,9,-51,15,0.01
2013-4-11,37.0,32.1,29.0,29.0,25.4,14.0,96,77,49,0.00,40.00,10,-22,14,0.00
2013-4-12,39.0,31.5,28.0,31.0,21.2,7.0,98,68,39,0.00,40.00,8,-81,15,0.01
2013-4-13,30.0,26.4,22.0,26.0,22.2,18.0,92,84,70,0.00,40.00,11,-74,17,0.01
2013-4-14,33.0,27.5,23.0,26.0,20.4,13.0,95,76,49,0.00,40.00,4,-78,7,0.01
2013-4-15,33.0,28.1,25.0,28.0,24.6,21.0,96,86,72,0.00,40.00,3,-70,7,0.01
2013-4-16,34.0,27.9,24.0,25.0,18.8,12.0,94,71,41,0.00,40.00,6,-69,8,0.01
2013-4-17,40.0,31.6,24.0,24.0,19.2,15.0,74,61,39,0.00,40.00,4,-78,7,0.01
2013-4-18,46.0,37.6,30.0,34.0,30.3,25.0,90,75,57,0.00,40.00,4,-74,8,0.01
2013-4-19,43.0,38.4,35.0,35.0,33.4,31.0,94,83,68,0.00,40.00,7,-76,12,0.00
2013-4-20,41.0,35.8,32.0,32.0,30.4,28.0,92,80,66,0.00,40.00,5,-77,10,0.00
2013-4-21,39.0,33.6,29.0,30.0,26.7,24.0,92,76,55,0.00,40.00,5,-74,10,0.00
2013-4-22,42.0,33.4,27.0,26.0,13.5,5.0,89,46,21,0.00,40.00,5,-78,8,0.00
2013-4-23,42.0,36.9,30.0,20.0,12.5,-99.9,62,43,32,0.00,40.00,5,-113,7,0.00
2013-4-24,51.0,46.2,42.0,23.0,18.7,15.0,40,33,25,0.00,40.00,5,3,7,0.00
2013-4-25,55.0,48.4,38.0,34.0,29.1,16.0,58,47,37,0.00,40.00,5,-45,8,0.00
2013-4-26,58.0,50.8,42.0,32.0,22.6,17.0,60,34,25,0.00,40.00,4,-46,9,0.00
2013-4-27,47.0,41.8,38.0,36.0,27.0,15.0,91,59,32,0.00,40.00,11,-66,17,0.01
2013-4-28,42.0,36.9,33.0,33.0,29.7,27.0,89,75,62,0.00,40.00,7,-72,13,0.00
2013-4-29,34.0,31.0,27.0,33.0,25.4,19.0,98,81,66,0.00,40.00,8,-102,14,0.02
2013-4-30,34.0,29.1,23.0,24.0,20.4,17.0,92,70,53,0.00,40.00,4,-257,8,0.01
2013-5-1,47.0,38.4,27.0,26.0,18.7,12.0,55,45,35,0.00,40.00,2,1,6,0.00
2013-5-2,56.0,46.9,36.0,25.0,16.9,-99.9,50,35,28,0.00,40.00,4,-63,7,0.00
2013-5-3,59.0,51.2,41.0,32.0,26.5,17.0,58,39,26,0.00,40.00,5,-45,9,0.00
2013-5-4,55.0,49.0,43.0,33.0,30.1,25.0,58,48,38,0.00,40.00,6,-76,12,0.00
2013-5-5,61.0,52.0,45.0,31.0,25.2,18.0,49,36,25,0.00,40.00,6,-80,11,0.00
2013-5-6,65.0,58.3,48.0,28.0,18.8,-99.9,37,25,17,0.00,40.00,4,-131,9,0.00
2013-5-7,67.0,60.5,55.0,36.0,30.2,26.0,48,32,24,0.00,40.00,5,-84,7,0.00
2013-5-8,70.0,61.6,53.0,35.0,28.3,-99.9,48,33,23,0.00,40.00,3,-82,6,0.00
2013-5-9,71.0,61.8,53.0,34.0,21.2,-99.9,45,26,15,0.00,40.00,4,-146,7,0.00
2013-5-10,71.0,59.4,54.0,32.0,19.4,-99.9,33,24,18,0.00,40.00,4,-146,9,0.01
2013-5-11,70.0,59.3,55.0,41.0,26.8,-99.9,53,34,26,0.00,40.00,5,-78,7,0.00
2013-5-12,57.0,52.9,47.0,47.0,41.4,28.0,87,67,34,0.00,40.00,6,-77,10,0.01
2013-5-13,49.0,41.2,32.0,44.0,36.0,27.0,94,82,61,0.00,40.00,8,-64,16,0.00
2013-5-14,50.0,40.8,31.0,27.0,21.6,13.0,85,51,23,0.00,40.00,4,-58,7,0.01
2013-5-15,50.0,44.1,38.0,37.0,17.5,-99.9,84,52,42,0.00,40.00,3,-155,5,0.00
2013-5-16,47.0,42.1,38.0,42.0,29.2,-99.9,90,80,70,0.00,40.00,4,-59,7,0.02
2013-5-17,47.0,42.4,40.0,43.0,34.5,-99.9,89,83,76,0.00,40.00,5,-58,8,0.01
2013-5-18,46.0,41.3,36.0,38.0,34.2,31.0,86,76,64,0.00,40.00,6,-77,8,0.01
2013-5-19,53.0,43.8,36.0,39.0,33.5,29.0,79,67,57,0.00,40.00,5,-74,8,0.00
2013-5-20,58.0,49.5,40.0,37.0,34.1,30.0,74,57,39,0.00,40.00,4,-80,8,0.00
2013-5-21,45.0,39.6,35.0,40.0,34.2,30.0,97,82,67,0.00,40.00,4,-74,9,0.01
2013-5-22,36.0,32.8,31.0,34.0,31.3,30.0,98,94,84,0.00,40.00,6,-38,10,0.03
2013-5-23,41.0,34.7,31.0,38.0,32.3,30.0,99,91,72,0.00,40.00,2,-39,5,0.02
2013-5-24,43.0,36.6,31.0,38.0,27.4,-99.9,96,83,68,0.00,40.00,4,-82,9,0.01
2013-5-25,45.0,40.1,34.0,36.0,32.5,28.0,86,74,67,0.00,40.00,3,-41,6,0.00
2013-5-26,48.0,42.5,38.0,43.0,37.0,33.0,93,81,72,0.00,40.00,4,-40,6,0.00
2013-5-27,42.0,39.6,37.0,40.0,37.3,32.0,99,92,79,0.00,40.00,2,-73,5,0.02
2013-5-28,49.0,42.6,38.0,42.0,38.4,35.0,99,86,65,0.00,40.00,3,-38,7,0.01
2013-5-29,43.0,39.3,35.0,41.0,36.0,32.0,99,88,76,0.00,40.00,5,-36,9,0.01
2013-5-30,46.0,40.4,35.0,34.0,31.8,29.0,88,72,59,0.00,40.00,6,-35,11,0.01
2013-5-31,52.0,44.3,36.0,37.0,32.4,28.0,74,63,53,0.00,40.00,6,-39,7,0.00
2013-6-1,56.0,48.2,41.0,38.0,33.7,31.0,70,57,43,0.00,40.00,5,2,8,0.00
2013-6-2,51.0,45.8,40.0,38.0,34.4,29.0,84,65,52,0.00,40.00,5,-18,8,0.00
2013-6-3,56.0,49.1,42.0,39.0,34.4,30.0,70,58,43,0.00,40.00,5,-37,7,0.00
2013-6-4,61.0,53.9,47.0,45.0,39.0,35.0,67,57,47,0.00,40.00,3,-40,6,0.00
2013-6-5,66.0,57.5,48.0,42.0,37.0,32.0,63,47,34,0.00,40.00,6,-37,9,0.00
2013-6-6,70.0,60.9,53.0,38.0,29.7,20.0,41,31,20,0.00,40.00,5,-60,8,0.00
2013-6-7,58.0,53.9,44.0,46.0,35.5,23.0,69,51,29,0.00,40.00,8,-37,15,0.00
2013-6-8,63.0,54.1,45.0,37.0,28.7,14.0,67,39,22,0.00,40.00,6,-39,9,0.00
2013-6-9,58.0,49.2,40.0,37.0,30.2,25.0,74,51,30,0.00,40.00,5,-38,9,0.00
2013-6-10,60.0,50.9,40.0,36.0,26.7,14.0,66,41,20,0.00,40.00,6,-36,8,0.00
2013-6-11,50.0,45.8,38.0,40.0,27.8,-99.9,75,59,48,0.00,40.00,7,-73,11,0.00
2013-6-12,51.0,43.3,33.0,33.0,30.3,28.0,83,61,42,0.00,40.00,6,4,11,0.01
2013-6-13,50.0,42.2,35.0,38.0,32.9,26.0,80,70,54,0.00,40.00,5,-94,8,0.01
2013-6-14,56.0,46.8,37.0,38.0,34.5,31.0,85,64,46,0.00,40.00,6,-69,8,0.00
2013-6-15,64.0,54.4,42.0,38.0,33.5,28.0,71,47,28,0.00,40.00,3,-56,6,0.00
2013-6-16,67.0,58.4,49.0,43.0,32.5,28.0,64,39,25,0.00,40.00,3,-156,6,0.00
2013-6-17,62.0,55.7,50.0,44.0,37.2,32.0,82,52,34,0.00,40.00,4,-24,8,0.00
2013-6-18,51.0,47.3,43.0,42.0,38.4,35.0,87,72,57,0.00,40.00,5,-70,8,0.01
2013-6-19,50.0,44.7,41.0,42.0,37.8,35.0,89,77,68,0.00,40.00,6,-75,10,0.00
2013-6-20,41.0,39.8,38.0,37.0,35.7,35.0,87,85,81,0.00,40.00,7,-131,13,0.00
2013-6-22,60.0,53.4,47.0,44.0,41.0,39.0,85,63,48,0.00,40.00,3,1,7,0.00
2013-6-23,55.0,51.2,47.0,48.0,43.6,40.0,97,76,62,0.00,40.00,2,1,5,0.00
2013-6-24,51.0,47.8,43.0,48.0,43.6,37.0,99,86,71,0.00,40.00,3,1,5,0.01
2013-6-25,51.0,45.2,41.0,46.0,42.4,36.0,98,90,78,0.00,40.00,2,-36,5,0.01
2013-6-26,55.0,48.2,41.0,48.0,43.4,38.0,96,84,71,0.00,40.00,3,-64,7,0.01
2013-6-27,60.0,52.8,47.0,51.0,41.4,-99.9,94,79,68,0.00,40.00,3,-119,5,0.00
2013-6-28,70.0,61.4,49.0,56.0,51.1,46.0,92,70,51,0.00,40.00,3,-82,7,0.01
2013-6-29,68.0,61.5,57.0,56.0,51.9,47.0,91,71,61,0.00,40.00,3,-70,5,0.02
2013-6-30,75.0,66.3,54.0,56.0,48.0,38.0,78,52,36,0.00,40.00,2,-82,5,0.02
2013-7-1,81.0,69.7,63.0,52.0,45.7,40.0,57,43,26,0.00,40.00,5,-75,7,0.00
2013-7-2,81.0,71.7,63.0,51.0,41.7,36.0,52,35,22,0.00,40.00,7,-49,10,0.00
2013-7-3,71.0,62.2,56.0,38.0,32.5,20.0,44,34,18,0.00,40.00,7,4,9,0.00
2013-7-4,64.0,58.8,52.0,37.0,33.1,25.0,52,38,29,0.00,40.00,6,-20,10,0.00
2013-7-5,64.0,55.7,48.0,42.0,36.2,23.0,64,48,33,0.00,40.00,7,-82,9,0.00
2013-7-6,68.0,57.7,50.0,44.0,38.6,33.0,57,49,35,0.00,40.00,4,-101,9,0.00
2013-7-7,70.0,61.3,53.0,46.0,39.7,29.0,68,47,25,0.00,40.00,4,-21,7,0.00
2013-7-8,67.0,57.5,49.0,45.0,41.7,37.0,71,56,39,0.00,40.00,4,-98,7,0.00
2013-7-9,73.0,63.0,53.0,44.0,38.7,33.0,60,43,25,0.00,40.00,3,-113,7,0.00
2013-7-10,69.0,59.9,54.0,45.0,31.3,-99.9,62,38,19,0.00,40.00,5,-133,9,0.00
2013-7-11,62.0,54.5,49.0,35.0,26.0,19.0,56,34,23,0.00,40.00,5,-55,11,0.00
2013-7-12,57.0,50.8,45.0,32.0,24.1,10.0,56,36,19,0.00,40.00,6,-100,10,0.65
2013-7-13,64.0,54.4,44.0,35.0,31.4,26.0,60,43,28,0.00,40.00,4,-341,6,0.66
2013-7-14,70.0,58.9,48.0,34.0,28.2,7.0,56,33,13,0.00,40.00,5,-117,10,0.00
2013-7-15,66.0,56.8,50.0,37.0,32.4,22.0,57,41,26,0.00,40.00,5,-140,8,0.00
2013-7-16,69.0,60.9,52.0,36.0,33.5,29.0,53,37,26,0.00,40.00,7,-58,9,0.00
2013-7-17,72.0,64.7,56.0,48.0,37.9,32.0,52,37,30,0.00,40.00,4,-83,8,0.00
2013-7-18,76.0,67.5,54.0,43.0,35.1,23.0,56,32,14,0.00,40.00,3,-43,7,0.00
2013-7-19,78.0,66.5,57.0,30.0,24.6,14.0,33,22,9,0.00,40.00,4,-92,8,0.00
2013-7-20,77.0,65.6,58.0,34.0,20.2,2.0,28,18,10,0.00,40.00,6,-117,9,0.00
2013-7-21,77.0,68.6,60.0,41.0,29.6,18.0,37,24,17,0.00,40.00,6,-173,9,0.00
2013-7-22,76.0,65.6,58.0,38.0,31.4,25.0,42,28,19,0.00,40.00,6,-58,8,0.00
2013-7-23,80.0,69.5,61.0,33.0,26.4,19.0,34,21,11,0.00,40.00,5,-84,7,0.00
2013-7-24,80.0,71.0,57.0,32.0,23.7,5.0,30,17,12,0.00,40.00,4,-35,7,0.00
2013-7-25,79.0,68.7,57.0,30.0,23.5,16.0,29,19,12,0.00,40.00,4,-118,7,0.00
2013-7-26,78.0,67.7,56.0,34.0,16.5,-2.0,38,15,8,0.00,40.00,5,-66,10,0.01
2013-7-27,72.0,60.8,54.0,37.0,32.5,22.0,49,35,25,0.00,40.00,7,-96,11,0.01
2013-7-28,68.0,60.0,54.0,39.0,28.2,9.0,54,31,16,0.00,40.00,6,-31,9,0.00
2013-7-29,67.0,60.0,54.0,39.0,35.9,31.0,49,41,33,0.00,40.00,4,-78,10,0.00
2013-7-30,68.0,61.8,56.0,41.0,34.1,29.0,52,36,27,0.00,40.00,4,-72,9,0.00
2013-7-31,70.0,62.6,56.0,42.0,35.5,32.0,56,37,27,0.00,40.00,4,-106,8,0.00
2013-8-1,66.0,57.4,51.0,48.0,40.7,34.0,87,57,32,0.00,40.00,5,-37,8,0.02
2013-8-2,58.0,52.9,49.0,51.0,47.1,44.0,93,81,71,0.00,40.00,5,-151,8,0.02
2013-8-3,60.0,54.9,50.0,51.0,48.0,44.0,97,78,63,0.00,40.00,3,-56,5,0.02
2013-8-4,68.0,59.8,50.0,51.0,47.8,43.0,87,66,45,0.00,40.00,3,-98,6,0.00
2013-8-5,73.0,62.1,54.0,49.0,43.6,37.0,70,53,30,0.00,40.00,3,-221,6,0.00
2013-8-6,76.0,66.8,55.0,40.0,34.7,26.0,50,32,16,0.00,40.00,3,-67,8,0.00
2013-8-7,74.0,66.1,56.0,41.0,32.2,20.0,48,30,16,0.00,40.00,6,-62,8,0.00
2013-8-8,73.0,64.9,54.0,44.0,35.5,23.0,54,34,23,0.00,40.00,5,2,6,0.00
2013-8-9,75.0,67.3,59.0,45.0,38.6,29.0,48,35,29,0.00,40.00,4,-98,7,0.00
2013-8-10,71.0,63.6,55.0,53.0,49.0,46.0,86,61,42,0.00,40.00,5,-64,10,0.02
2013-8-11,68.0,59.3,51.0,49.0,46.0,41.0,77,62,44,0.00,40.00,7,-123,10,0.01
2013-8-12,71.0,61.6,52.0,46.0,37.8,-99.9,79,49,32,0.00,40.00,4,-54,7,0.00
2013-8-13,73.0,63.6,53.0,38.0,20.8,-99.9,54,28,15,0.00,40.00,2,-284,5,0.00
2013-8-14,74.0,63.4,56.0,40.0,34.9,31.0,46,36,23,0.00,40.00,5,-120,8,0.00
2013-8-15,68.0,58.9,56.0,50.0,40.0,-99.9,77,55,44,0.00,40.00,5,-105,9,0.00
2013-8-16,70.0,59.1,52.0,46.0,34.9,-99.9,57,46,31,0.00,40.00,3,2,7,0.00
2013-8-17,63.0,57.3,53.0,48.0,30.3,-99.9,67,51,41,0.00,40.00,5,-122,9,0.00
2013-8-18,69.0,59.7,51.0,42.0,37.3,25.0,66,45,20,0.00,40.00,5,3,9,0.00
2013-8-19,63.0,53.6,49.0,46.0,29.7,-99.9,67,48,30,0.00,40.00,5,4,10,0.00
2013-8-20,68.0,58.2,49.0,40.0,32.3,19.0,72,40,25,0.00,40.00,8,-117,10,0.00
2013-8-21,70.0,59.6,51.0,39.0,33.7,30.0,48,38,29,0.00,40.00,3,1,6,0.00
2013-8-22,74.0,62.9,54.0,36.0,30.4,25.0,41,30,22,0.00,40.00,3,1,7,0.00
2013-8-23,64.0,58.7,55.0,45.0,41.7,34.0,66,54,42,0.00,40.00,5,3,7,0.00
2013-8-24,65.0,55.2,49.0,44.0,33.3,-99.9,67,48,38,0.00,40.00,4,2,7,0.00
2013-8-25,63.0,55.7,49.0,49.0,36.5,25.0,96,51,30,0.00,40.00,2,1,7,0.00
2013-8-26,60.0,51.7,44.0,52.0,44.7,40.0,94,78,55,0.00,40.00,3,-65,5,0.00
2013-8-27,59.0,52.0,46.0,48.0,44.0,41.0,86,76,60,0.00,40.00,3,1,7,0.00
2013-8-28,67.0,62.7,57.0,47.0,45.1,43.0,69,54,45,0.00,40.00,3,2,6,0.00
2013-8-29,62.0,56.8,53.0,55.0,46.9,39.0,92,70,58,0.00,40.00,6,-164,12,0.01
2013-8-30,62.0,55.1,49.0,48.0,41.8,31.0,87,63,32,0.00,40.00,5,3,9,0.01
2013-8-31,69.0,55.8,48.0,47.0,37.3,-99.9,76,55,34,0.00,40.00,2,1,5,0.00
2013-9-1,76.0,64.0,54.0,45.0,39.1,35.0,57,42,27,0.00,40.00,3,2,6,0.00
2013-9-2,72.0,63.0,55.0,45.0,33.0,22.0,68,34,24,0.00,40.00,4,-48,7,0.00
2013-9-3,71.0,61.1,55.0,52.0,45.6,35.0,69,58,31,0.00,40.00,3,-142,6,0.00
2013-9-4,72.0,63.9,57.0,52.0,44.4,38.0,62,50,33,0.00,40.00,3,1,6,0.00
2013-9-5,63.0,59.1,54.0,54.0,49.8,44.0,82,72,60,0.00,40.00,5,3,8,0.00
2013-9-6,52.0,49.2,48.0,49.0,45.6,44.0,97,88,75,0.00,40.00,2,1,6,0.03
2013-9-7,51.0,47.5,45.0,49.0,42.3,-99.9,98,89,85,0.00,40.00,3,1,6,0.01
2013-9-8,66.0,57.1,46.0,48.0,44.2,40.0,88,63,46,0.00,40.00,3,-57,7,0.00
2013-9-9,70.0,62.5,56.0,47.0,40.8,31.0,56,45,37,0.00,40.00,4,3,7,0.00
2013-9-10,70.0,61.8,54.0,48.0,43.5,40.0,61,52,39,0.00,40.00,4,2,6,0.00
2013-9-11,71.0,65.7,59.0,42.0,39.9,37.0,45,39,35,0.00,40.00,6,-130,10,0.00
2013-9-12,76.0,67.4,63.0,43.0,41.8,39.0,45,40,31,0.00,40.00,5,4,6,0.00
2013-9-13,78.0,66.9,60.0,45.0,39.8,36.0,50,38,28,0.00,40.00,3,-50,6,0.00
2013-9-14,75.0,65.8,63.0,47.0,37.4,-99.9,45,37,32,0.00,40.00,5,3,9,0.00
2013-9-15,70.0,62.3,51.0,49.0,42.5,39.0,82,50,38,0.00,40.00,6,-59,10,0.01
2013-9-16,55.0,49.8,47.0,47.0,43.8,41.0,91,80,64,0.00,40.00,5,3,9,0.01
2013-9-17,52.0,46.2,41.0,44.0,40.2,36.0,86,79,72,0.00,40.00,6,3,10,0.00
2013-9-18,44.0,40.7,40.0,35.0,32.7,29.0,83,74,64,0.00,40.00,5,-130,8,0.00
2013-9-19,57.0,48.5,40.0,36.0,32.2,28.0,74,55,37,0.00,40.00,2,-149,6,0.00
2013-9-20,62.0,54.5,46.0,37.0,30.2,27.0,57,41,28,0.00,40.00,4,2,7,0.00
2013-9-21,54.0,46.0,43.0,40.0,33.6,-99.9,84,67,46,0.00,40.00,4,3,7,0.00
2013-9-22,44.0,41.6,38.0,41.0,37.9,36.0,97,87,79,0.00,40.00,6,-51,10,0.01
2013-9-23,42.0,39.1,38.0,40.0,37.1,35.0,96,92,89,0.00,40.00,5,4,11,0.01
2013-9-24,47.0,40.3,36.0,37.0,31.7,27.0,90,73,51,0.00,40.00,5,3,8,0.01
2013-9-25,49.0,41.8,38.0,34.0,31.2,26.0,84,68,45,0.00,40.00,3,3,8,0.00
2013-9-26,44.0,38.5,36.0,36.0,33.5,31.0,91,82,64,0.00,40.00,5,-185,7,0.00
2013-9-27,40.0,37.7,35.0,40.0,32.4,22.0,99,82,56,0.00,40.00,6,-59,11,0.01
2013-9-28,45.0,39.2,37.0,45.0,35.5,-99.9,99,95,95,0.00,40.00,6,2,10,0.05
2013-9-29,42.0,37.9,35.0,39.0,36.2,34.0,99,94,85,0.00,40.00,6,4,15,0.02
2013-9-30,38.0,34.8,33.0,36.0,33.6,31.0,99,96,90,0.00,40.00,7,-184,13,0.04
2013-10-2,41.0,36.3,32.0,34.0,32.5,30.0,97,87,71,0.00,40.00,4,1,7,0.00
2013-10-3,44.0,37.6,31.0,31.0,24.3,-99.9,91,69,51,0.00,40.00,3,-35,8,0.00
2013-10-4,48.0,40.4,34.0,33.0,28.5,25.0,77,63,50,0.00,40.00,2,-110,5,0.00
2013-10-5,54.0,47.1,39.0,35.0,27.6,22.0,75,47,30,0.00,40.00,2,-56,4,0.00
2013-10-6,55.0,47.1,42.0,34.0,29.9,23.0,67,52,42,0.00,40.00,2,-62,5,0.00
2013-10-7,44.0,40.8,35.0,37.0,31.9,24.0,89,73,44,0.00,40.00,6,-59,12,0.00
2013-10-8,40.0,35.5,34.0,34.0,31.6,29.0,94,86,68,0.00,40.00,6,-66,13,0.00
2013-10-9,47.0,37.9,33.0,32.0,19.6,-99.9,79,63,56,0.00,40.00,4,-136,8,0.00
2013-10-10,47.0,40.4,36.0,31.0,27.6,23.0,75,61,54,0.00,40.00,5,-102,7,0.00
2013-10-11,41.0,37.5,32.0,32.0,30.1,27.0,84,75,63,0.00,40.00,3,1,5,0.00
2013-10-12,37.0,34.7,33.0,33.0,27.8,-99.9,93,83,78,0.00,40.00,4,2,6,0.00
2013-10-13,45.0,38.8,34.0,32.0,30.8,28.0,84,73,58,0.00,40.00,3,-86,5,0.00
2013-10-21,55.0,49.8,48.0,35.0,32.8,31.0,57,53,46,0.00,40.00,1,1,2,0.00
2013-10-22,60.0,50.9,47.0,36.0,30.9,24.0,53,46,40,0.00,40.00,2,1,4,0.00
2013-10-23,56.0,46.5,42.0,32.0,29.0,27.0,63,52,35,0.00,40.00,2,1,4,0.00
2013-10-24,56.0,50.8,43.0,36.0,32.2,28.0,55,49,43,0.00,40.00,1,1,4,0.00
2013-10-25,46.0,44.2,43.0,37.0,32.1,29.0,80,63,51,0.00,40.00,1,-272,2,0.00
2013-10-26,51.0,42.2,40.0,42.0,28.6,-99.9,92,68,55,0.00,40.00,2,1,4,0.00
2013-10-27,36.0,35.5,35.0,35.0,32.5,30.0,99,88,77,0.00,40.00,6,6,11,0.03
2013-11-12,41.0,38.8,36.0,41.0,36.7,33.0,99,93,86,0.00,40.00,3,-67,8,0.01
2013-11-13,40.0,38.0,36.0,33.0,33.0,33.0,89,83,77,0.00,40.00,2,-332,5,0.00
2013-11-14,39.0,32.8,28.0,28.0,26.0,24.0,84,77,66,0.00,40.00,3,2,7,0.00
2013-11-15,32.0,30.6,30.0,29.0,27.0,25.0,95,86,76,0.00,40.00,7,7,17,0.01
2013-11-16,28.0,24.5,25.0,26.0,14.7,-99.9,95,80,79,0.00,40.00,7,6,12,0.01
2013-11-17,32.0,32.0,32.0,31.0,31.0,31.0,96,96,96,0.00,40.00,2,2,6,0.00
2013-11-18,37.0,35.0,34.0,36.0,34.3,33.0,99,98,97,0.00,40.00,6,3,11,0.02
2013-11-19,37.0,29.8,22.0,37.0,24.3,18.0,98,81,58,0.00,40.00,8,-67,13,0.01
2013-11-21,30.0,24.0,14.0,5.0,-2.8,-6.0,67,32,24,0.00,40.00,1,-124,4,0.00
2013-11-22,34.0,28.7,24.0,6.0,-1.7,-13.0,37,27,17,0.00,40.00,1,0,2,0.00
2013-11-23,39.0,32.5,27.0,12.0,2.6,-99.9,36,31,27,0.00,40.00,1,0,4,0.00
2013-11-24,52.0,48.2,44.0,3.0,-0.2,-3.0,17,13,10,0.00,40.00,1,1,4,0.00
2013-11-25,45.0,45.0,45.0,10.0,10.0,10.0,24,24,24,0.00,40.00,0,0,2,0.00
2013-11-26,44.0,37.9,34.0,20.0,15.9,11.0,51,40,33,0.00,40.00,3,1,5,0.00
2013-11-27,41.0,37.7,33.0,23.0,19.4,17.0,51,47,43,0.00,40.00,0,-83,2,0.00
2013-11-28,45.0,37.7,31.0,25.0,20.8,17.0,62,50,42,0.00,40.00,1,1,4,0.00
2013-11-29,40.0,37.6,34.0,36.0,32.0,25.0,88,80,70,0.00,40.00,4,2,8,0.00
2013-11-30,39.0,35.1,35.0,36.0,28.1,-99.9,96,85,78,0.00,40.00,4,-85,9,0.00
2013-12-1,38.0,35.3,33.0,37.0,34.7,33.0,99,97,95,0.00,40.00,6,3,14,0.03
2013-12-2,24.0,21.3,17.0,21.0,17.3,13.0,91,84,74,0.00,40.00,0,0,0,0.02
2013-12-3,16.0,13.0,11.0,9.0,7.5,6.0,83,78,73,0.00,40.00,0,0,0,0.00
2013-12-4,16.0,11.5,4.0,9.0,6.8,1.0,91,80,70,0.00,40.00,0,0,0,0.00
2013-12-5,11.0,5.4,1.0,8.0,2.4,-2.0,89,87,86,0.00,40.00,0,0,0,0.00
2013-12-6,3.0,1.7,-1.0,0.0,-1.5,-5.0,86,85,84,0.00,40.00,0,0,0,0.01
2013-12-7,9.0,0.6,-3.0,-5.0,-13.3,-99.9,83,64,44,0.00,40.00,0,0,0,0.01
2013-12-8,22.0,14.8,-2.0,10.0,0.4,-12.0,61,53,42,0.00,40.00,0,0,0,0.01
2013-12-9,26.0,22.1,19.0,16.0,15.9,15.0,85,76,64,0.00,40.00,4,2,7,0.00
2013-12-10,30.0,24.4,19.0,23.0,20.7,18.0,96,85,73,0.00,40.00,3,1,5,0.01
2013-12-11,32.0,26.9,21.0,27.0,22.7,20.0,97,85,69,0.00,40.00,1,0,3,0.00
2013-12-12,35.0,31.8,29.0,22.0,19.8,18.0,75,62,55,0.00,40.00,2,1,4,0.00
2013-12-13,37.0,35.0,34.0,32.0,30.6,28.0,92,84,74,0.00,40.00,7,5,12,0.00
2013-12-14,41.0,34.0,35.0,25.0,6.9,-99.9,67,43,38,0.00,40.00,4,3,10,0.00
2013-12-15,43.0,41.0,40.0,34.0,25.3,20.0,81,56,43,0.00,40.00,8,8,13,0.00
2013-12-16,45.0,37.3,30.0,26.0,19.0,9.0,86,50,25,0.00,40.00,2,1,5,0.00
2013-12-17,44.0,39.1,35.0,33.0,25.4,17.0,86,60,35,0.00,40.00,8,-78,13,0.00
2013-12-18,34.0,28.7,19.0,28.0,22.7,13.0,85,78,71,0.00,40.00,4,3,9,0.00
2013-12-19,26.0,21.2,15.0,14.0,2.7,-20.0,84,48,12,0.00,40.00,4,2,7,0.00
2013-12-20,32.0,28.0,24.0,30.0,21.2,12.0,92,76,56,0.00,40.00,6,3,11,0.01
2013-12-21,35.0,30.5,28.0,31.0,24.6,-99.9,92,85,81,0.00,40.00,4,-75,9,0.01
2013-12-22,41.0,37.8,33.0,35.0,32.9,28.0,91,83,74,0.00,40.00,6,4,10,0.00
2013-12-23,37.0,32.7,28.0,36.0,29.4,22.0,97,88,74,0.00,40.00,8,6,15,0.00
2013-12-24,38.0,30.6,21.0,17.0,9.7,-10.0,85,45,16,0.00,40.00,2,1,5,0.00
2013-12-25,42.0,37.7,31.0,33.0,17.0,-11.0,78,51,15,0.00,40.00,7,4,11,0.00
2013-12-26,49.0,42.1,38.0,38.0,30.4,16.0,75,64,39,0.00,40.00,2,1,6,0.00
2013-12-27,42.0,40.0,38.0,20.0,16.0,11.0,42,38,30,0.00,40.00,5,2,10,0.00
2013-12-28,36.0,27.8,29.0,22.0,5.1,-99.9,66,52,51,0.00,40.00,4,2,7,0.00
2013-12-29,41.0,36.2,28.0,31.0,21.8,4.0,68,57,34,0.00,40.00,3,2,5,0.00
2013-12-30,41.0,40.0,38.0,37.0,35.4,34.0,87,83,80,0.00,40.00,4,-198,8,0.00
2013-12-31,36.0,32.5,30.0,30.0,21.6,12.0,90,66,46,0.00,40.00,5,3,10,0.00
2014-1-1,42.0,33.1,29.0,31.0,15.9,10.0,74,49,32,0.00,40.00,1,0,5,0.00
2014-1-2,41.0,38.3,36.0,35.0,29.9,24.0,88,72,57,0.00,40.00,6,3,12,0.00